LEDSAT

Last updated on Fri Jul 11 2025 00:03:04 GMT+0000 (Coordinated Universal Time)

1 49069U 21073D 25191.49207927 .00049214 00000+0 50921-3 0 9998 2 49069 97.3879 274.4081 0006850 314.2576 45.8120 15.64561971216268
UTC large
Height (km)
Speed (km/s)
/
Latitude / Longitude
Inclination (degrees)
Orbital Period (minutes)
Azimuth
Elevation
Range (km)
Doppler Factor

Next 0 passes for location: London (51.5072 / 0.1276)

Sorry there are no passes over London.